Content
SEND FEEDBACK

Daily
Averages
Monthly
Summary
United States of America

PUT IN BAY, OHIO


Home > North America > United States > Ohio
Elevation: 561 feet     Latitude: 41 39N     Longitude: 082 48W

WEATHER
 
SELECT A DAY
Number of Records: 122,906;   Date Range: 12/10/00 - 8/31/14
 
SHARE

PRINT THIS DATA

[ ← Previous Day ]
WEATHER ALMANAC - JANUARY 18, 2014
[ Next Day → ]
[ °C ]   °F
Weather ElementAverageHighLow
Temperature14.3 °F17.4 °F (8:00 pm)8.8 °F (7:00 am)
Dewpoint10.3 °F15.3 °F (11:00 pm)6 °F (7:00 am)
Humidity83 %95 % (7:00 am)70 % (7:00 pm)
Barometer29.96 in30.01 in (10:00 am)29.88 in (11:00 pm)
Wind Speed9.9 mph15 mph (12:00 pm)
Wind Gust20.7 mph (12:00 pm)
Weather ElementAverage
Wind DirectionSW (223 °)

Weather ElementTotal
Precipitation0.02 in
Heating Degree Days51.9 (Base 65)
Averaged from 27 records on January 18, 2014
WEATHER CONDITIONS BREAKOUT
WIND DIRECTION BREAKOUT
WEATHER BY HOUR - JANUARY 18, 2014
[ °C ]   °F
Local TimeTemperatureDewpointHumidityBarometerVisibilityWind DirectionWind SpeedGust SpeedPrecipitationEventsConditions
1:00 AM15.0 °F12.0 °F82 %29.94 inWSW (250°)13.8 mph
1:00 AM15.4 °F12.0 °F86 %29.94 inWSW (250°)13.8 mph0.01 in
2:00 AM14.7 °F10.2 °F82 %29.94 inWSW (250°)11.5 mph
3:00 AM13.8 °F9.3 °F82 %29.95 inWSW (250°)11.5 mph17.3 mph
4:00 AM10.6 °F7.5 °F87 %29.96 inWSW (240°)12.7 mph
5:00 AM9.9 °F6.8 °F87 %29.96 inWSW (240°)11.5 mph
6:00 AM9.7 °F6.6 °F87 %29.97 inWSW (240°)11.5 mph
7:00 AM9.0 °F6.0 °F81 %29.97 inSW (230°)9.2 mph
7:00 AM8.8 °F7.7 °F95 %29.97 inSW (230°)9.2 mph
8:00 AM9.7 °F6.8 °F88 %29.97 inSW (230°)10.4 mph
9:00 AM10.6 °F7.5 °F87 %29.98 inSW (230°)9.2 mph
10:00 AM11.8 °F8.4 °F86 %30.01 inSW (230°)11.5 mph17.3 mph
11:00 AM13.6 °F11.3 °F90 %30.01 inSW (230°)13.8 mph
12:00 PM14.7 °F10.2 °F82 %29.99 inSW (230°)15.0 mph20.7 mph
1:00 PM16.0 °F11.0 °F73 %29.97 inSW (230°)12.7 mph
1:00 PM16.2 °F11.1 °F81 %29.97 inSW (230°)12.7 mph
2:00 PM17.1 °F10.9 °F77 %29.95 inSW (220°)10.4 mph
3:00 PM16.9 °F10.8 °F77 %29.95 inSW (220°)9.2 mph
4:00 PM17.1 °F11.1 °F77 %29.95 inSSW (200°)10.4 mph
5:00 PM16.5 °F10.4 °F77 %29.94 inSSW (200°)10.4 mph
6:00 PM16.7 °F10.9 °F78 %29.95 inSouth (190°)10.4 mph
7:00 PM17.0 °F11.0 °F70 %29.95 inSSW (200°)5.8 mph
7:00 PM16.9 °F11.5 °F79 %29.95 inSSW (200°)5.8 mph
8:00 PM17.4 °F12.2 °F80 %29.94 inSW (220°)3.5 mph
9:00 PM17.4 °F14.5 °F88 %29.92 inSSW (210°)4.6 mph
10:00 PM16.9 °F14.7 °F91 %29.91 inSouth (190°)4.6 mph0.01 in
11:00 PM17.4 °F15.3 °F91 %29.88 inSouth (180°)3.5 mph
Hourly data recorded from CXHA, located miles away from Put In Bay, Ohio







STORIES FROM OUR PARTNERS